Snowfall_Accumulation
0.0 0.0 0.0 0.0 0.0 0.0 0.0 0.0 0.0 0.0 0.0 0.0 0.0 0.0 0.0 0.0 0.0 0.0 0.0 0.0 0.0 0.0 0.0 0.0 0.0 0.0 0.0 0.0 0.0 0.0 0.0 0.0 0.0 0.0 0.0 0.0 0.0 0.0 0.0 0.0 0.0 0.0 0.0
0.0 0.0 0.0 0.0 0.0 0.0 0.0 0.0 0.0 0.0 0.0 0.0 0.0 0.0 0.0 0.0 0.0 0.0 0.0 0.0 0.0 0.0 0.0 0.0 0.0 0.0 0.0 0.0 0.0 0.0 0.0 0.0 0.0 0.0 0.0 0.0 0.0 0.0 0.0 0.0 0.0 0.0 0.0
0.0 0.0 0.0 0.0 0.0 0.0 0.0 0.0 0.0 0.0 0.0 0.0 0.0 0.0 0.0 0.0 0.0 0.0 0.0 0.0 0.0 0.0 0.0 0.0 0.0 0.0 0.0 0.0 0.0 0.0 0.0 0.0 0.0 0.0 0.0 0.0 0.0 0.0 0.0 0.0 0.0 0.0 0.0
0.0 0.0 0.0 0.0 0.0 0.0 0.0 0.0 0.0 0.0 0.0 0.0 0.0 0.0 0.0 0.0 0.0 0.0 0.0 0.0 0.0 0.0 0.0 0.0 0.0 0.1 0.0 0.0 0.0 0.0 0.0 0.0 0.0 0.0 0.0 0.0 0.0 0.0 0.0 0.0 0.0 0.0 0.0
0.0 0.0 0.0 0.0 0.0 0.0 0.0 0.0 0.0 0.0 0.0 0.0 0.0 0.0 0.0 0.0 0.0 0.0 0.0 0.0 0.0 0.0 0.0 0.0 0.0 0.0 0.1 0.1 0.1 0.1 0.1 0.0 0.0 0.0 0.0 0.0 0.0 0.0 0.0 0.0 0.0 0.0 0.0
0.0 0.0 0.0 0.0 0.0 0.0 0.0 0.0 0.0 0.0 0.0 0.0 0.0 0.0 0.0 0.0 0.0 0.0 0.0 0.0 0.0 0.0 0.0 0.0 0.0 0.0 0.0 0.2 0.2 0.2 0.1 0.1 0.0 0.0 0.0 0.0 0.0 0.0 0.0 0.0 0.0 0.0 0.0
0.0 0.0 0.0 0.0 0.0 0.0 0.0 0.0 0.0 0.0 0.0 0.0 0.1 0.1 0.0 0.0 0.0 0.0 0.0 0.0 0.0 0.0 0.0 0.0 0.0 0.0 0.0 0.1 0.2 0.3 0.2 0.1 0.1 0.0 0.0 0.0 0.0 0.0 0.0 0.0 0.0 0.0 0.0
0.0 0.0 0.0 0.0 0.0 0.0 0.0 0.0 0.0 0.1 0.1 0.1 0.3 0.8 0.5 0.0 0.0 0.0 0.0 0.0 0.0 0.1 0.1 0.1 0.1 0.1 0.1 0.1 0.1 0.1 0.3 0.2 0.1 0.1 0.0 0.0 0.0 0.0 0.0 0.0 0.0 0.0 0.0
0.1 0.1 0.1 0.1 0.1 0.0 0.0 0.0 0.1 0.3 0.4 0.2 0.3 1.9 3.1 1.8 0.5 0.0 0.0 0.0 0.0 0.1 0.1 0.1 0.1 0.1 0.1 0.1 0.1 0.1 0.2 0.3 0.2 0.1 0.1 0.0 0.0 0.0 0.0 0.0 0.0 0.0 0.0
0.1 0.1 0.2 0.1 0.1 0.1 0.1 0.1 0.1 0.2 0.6 0.8 0.5 0.7 1.9 2.7 3.3 1.6 0.1 0.1 0.0 0.1 0.0 0.0 0.1 0.1 0.1 0.1 0.1 0.2 0.3 0.3 0.3 0.2 0.1 0.1 0.0 0.0 0.0 0.0 0.0 0.0 0.0
0.1 0.3 0.3 0.2 0.1 0.1 0.1 0.2 0.2 0.3 0.6 1.2 1.4 1.2 1.0 1.0 1.5 3.1 1.5 0.2 0.2 0.0 0.0 0.1 0.0 0.0 0.0 0.1 0.1 0.1 0.3 0.6 0.4 0.4 0.2 0.1 0.1 0.0 0.0 0.0 0.0 0.0 0.0
0.2 0.3 0.4 0.2 0.1 0.1 0.1 0.2 0.3 0.4 0.6 0.8 1.1 1.4 2.0 2.4 2.0 2.6 2.4 0.8 0.4 0.1 0.0 0.1 0.0 0.0 0.1 0.0 0.0 0.2 0.5 0.6 0.6 0.5 0.3 0.1 0.1 0.1 0.1 0.0 0.0 0.0 0.0
0.3 0.3 0.5 0.4 0.4 0.1 0.1 0.2 0.4 0.5 0.6 0.9 1.2 1.3 1.6 1.8 2.0 2.7 3.2 1.9 1.0 0.4 0.2 0.2 0.0 0.1 0.1 0.1 0.1 0.1 0.4 0.6 0.7 0.7 0.5 0.4 0.3 0.2 0.1 0.1 0.1 0.1 0.0
0.4 0.3 0.4 0.4 0.5 0.2 0.3 0.4 0.5 0.7 0.8 1.0 1.0 1.3 1.8 1.5 1.8 2.7 3.8 4.2 3.8 0.9 0.4 0.4 0.2 0.1 0.1 0.1 0.1 0.3 0.2 0.2 0.3 0.5 0.5 0.4 0.4 0.2 0.1 0.1 0.2 0.2 0.1
0.2 0.3 0.3 0.4 0.6 0.3 0.6 0.8 0.7 0.9 1.0 1.3 1.5 1.7 2.2 1.9 1.8 2.1 2.8 4.3 7.2 6.0 1.6 0.4 0.4 0.1 0.0 0.1 0.0 0.1 0.1 0.1 0.2 0.5 0.6 0.5 0.3 0.3 0.2 0.1 0.1 0.2 0.2
0.2 0.2 0.4 0.6 0.8 0.9 0.9 1.0 1.6 1.6 1.6 1.7 2.0 2.4 2.5 2.3 2.4 2.3 2.7 3.1 4.4 6.4 4.4 0.5 0.4 0.1 0.0 0.0 0.0 0.0 0.0 0.1 0.2 0.3 0.3 0.4 0.3 0.2 0.2 0.2 0.1 0.2 0.2
0.2 0.3 0.5 0.6 0.9 1.0 1.2 1.5 1.8 2.3 2.5 2.1 2.2 2.4 2.5 2.7 3.2 2.2 2.2 2.6 2.9 4.2 5.3 1.0 0.4 0.2 0.0 0.1 0.0 0.0 0.0 0.0 0.0 0.0 0.1 0.3 0.3 0.3 0.3 0.3 0.2 0.2 0.2
0.1 0.2 0.4 0.8 1.0 1.4 1.3 1.9 1.9 2.2 2.9 2.7 2.8 2.8 2.8 3.0 3.3 2.3 2.4 2.7 2.6 2.6 4.3 3.1 0.6 0.2 0.2 0.1 0.1 0.1 0.1 0.1 0.1 0.0 0.1 0.2 0.3 0.4 0.4 0.4 0.3 0.2 0.2
0.3 0.2 0.4 0.9 1.6 2.4 2.3 1.9 2.6 2.7 2.8 3.2 3.1 3.7 3.3 3.6 3.5 2.8 2.7 2.9 2.6 2.3 2.9 3.6 1.8 0.5 0.4 0.1 0.3 0.2 0.2 0.2 0.1 0.1 0.1 0.1 0.2 0.3 0.3 0.3 0.4 0.2 0.3
0.4 0.3 0.5 0.9 2.0 3.2 3.6 3.9 4.3 3.9 3.1 2.7 2.6 3.1 3.9 4.4 4.4 4.4 4.5 4.0 3.6 4.0 3.8 4.1 3.0 1.8 1.3 0.9 1.0 1.5 1.4 1.1 1.0 0.6 0.4 0.1 0.2 0.3 0.3 0.4 0.5 0.6 0.6
0.5 0.6 0.5 0.6 1.7 4.2 6.7 8.7 8.1 5.3 3.5 2.7 2.2 2.5 3.5 4.1 4.7 6.0 6.8 6.6 6.4 7.1 6.7 6.7 5.5 4.1 3.2 2.9 2.8 2.0 2.8 1.8 1.3 0.9 0.8 0.7 0.7 0.4 0.2 0.1 0.2 0.2 0.4
0.7 0.5 0.6 0.8 1.1 3.9 7.6 10.2 7.5 4.3 3.1 2.7 2.5 2.3 3.0 5.1 6.1 4.9 5.6 6.1 7.3 9.9 11.0 10.3 8.8 7.1 4.7 3.6 3.1 3.5 4.7 5.2 4.2 1.2 1.4 1.3 0.9 1.1 0.5 0.4 0.1 0.2 0.4
0.8 0.6 0.9 0.8 0.8 2.2 6.0 8.7 6.2 3.5 2.9 2.5 2.4 2.3 2.7 3.8 4.9 6.1 6.4 5.4 5.6 5.9 8.1 10.7 11.9 8.1 6.0 4.3 5.2 6.1 5.7 6.5 5.6 3.3 2.7 3.7 1.5 1.9 0.8 0.2 0.2 0.3 0.5
1.0 0.8 1.0 1.0 0.9 1.3 4.7 7.6 5.6 2.9 2.2 2.2 2.2 2.0 1.9 2.6 3.9 5.7 7.1 6.8 6.2 6.6 8.3 9.7 11.9 10.0 6.8 5.1 7.0 9.0 9.0 8.9 5.2 2.5 2.3 6.0 2.2 1.9 1.4 0.5 0.3 0.5 0.5
0.9 1.0 0.9 1.0 1.0 0.9 3.3 7.4 5.8 2.8 2.2 2.3 2.4 1.9 1.5 1.8 3.1 5.0 6.2 6.2 5.0 5.4 6.2 7.8 8.4 8.4 6.5 6.0 6.3 9.9 12.1 14.1 11.4 4.4 2.5 5.6 3.3 2.9 2.4 1.8 1.1 0.3 0.5
1.4 1.1 1.1 1.1 1.3 1.1 2.5 6.4 7.0 3.6 3.0 2.3 2.4 2.1 1.7 2.6 3.2 4.1 5.1 6.3 7.7 6.2 5.4 5.3 5.3 4.8 4.8 5.4 4.9 8.5 11.0 14.6 13.6 9.8 3.7 5.6 4.5 5.3 6.1 2.6 2.0 1.4 0.8